Location: Baia Mare
(47.6567°N, 23.5850°E)
Time: 23:05:47
(UTC+03:00)

ISS - Pass Details

Date: 10 September 2019
Orbit: 411 x 421 km, 51.6° (Epoch: 19 September)

Event Time Altitude Azimuth Distance (km) Brightness Sun altitude
Exits shadow 05:42:58 12° 296° (WNW) 1,365 -1.5 -12.6°
Maximum altitude 05:45:59 67° 19° (NNE) 456 -3.5 -12.1°
Drops below altitude 10° 05:49:19 10° 103° (ESE) 1,492 -0.1 -11.6°
Sets 05:51:25 0° 106° (ESE) 2,356 1.0 -11.3°
